User: anonymous   Login
Location: Unspecified
(0.0000°N, 0.0000°E)
Time: 00:59:34
(UTC+00:00)
Language:

Cosmos 1570 - Orbit

View from above orbital plane
View from above orbital plane
View from above satellite
View from above satellite

Ground track
Ground track

The orbit data is extracted from the following two-line orbital elements,

1 15031U 84056A   18173.59404962 +.00000008 +00000-0 +12785-4 0  9997
2 15031 074.0658 200.0265 0014048 277.4951 230.1260 14.31739677776933
Epoch (UTC): 22 June 2018 14:15:25
Eccentricity: 0.0014048
inclination: 74.0658°
perigee height: 776 km
apogee height: 796 km
right ascension of ascending node: 200.0265°
argument of perigee: 277.4951°
revolutions per day: 14.31739677
mean anomaly at epoch: 230.1260°
orbit number at epoch: 77693

The dashed part of the orbit path shows where the satellite is in the earth's shadow,  

DLR